www.pogodaiklimat.ru

Погода и климат >> Архив погоды >> Россия >> Кировская область >> Нагорск


ПОГОДА в Нагорске

  • Прогноз погоды в Нагорске
  • Монитор погоды в Нагорске
  • Климат города

АРХИВ ПОГОДЫ в Нагорске

Время (UTC), дата Ветер
(напр.,м/с)
 
Видим.   Явления Облачность Т
(С)
Тd
(С)
f
(%)
Тe
(С)
Тes
(С)
Комфортность P
(гПа)
Po
(гПа)
Тmin
(С)
Tmax
(С)
R
(мм)
R24
(мм)
S
(см)
12 15.04 СЗ 6-11
{12}
50 км 3/3 1000 м
[Cu hum]
+8.8 -7.4 31 +6 +7 1013.5 987.7
15 15.04 СЗ 6-10
{12}
50 км 4/3 1000 м
[Cu hum Ci fib]
+6.4 -6.8 38 +3 +3 1014.4 988.5 +9.5
18 15.04 СЗ 4-5
{12}
50 км 1/0
[Ci fib]
+2.5 -6.5 51 -2 -2 1016.8 990.5
21 15.04 СЗ 3-3
{7}
50 км ясно -1.2 -7.9 60 -6 -6 1018.4 991.7
00 16.04 СЗ 2-2
{4}
50 км ясно -2.6 -9.1 61 -6 -6 1018.7 991.9
03 16.04 СЗ 2-4
{4}
50 км 10/0
[Cs]
-3.1 -9.0 64 -7 -6 1019.8 992.7 -3.9 33
06 16.04 СЗ 3-5
{7}
50 км 10/0
[As trans]
-0.5 -8.9 53 -5 -2 1020.8 994.0
09 16.04 С 2-4
{5}
50 км 10/0
[Cs]
+2.5 -7.9 46 0 +8 1020.0 993.5
12 16.04 З 3-5
{6}
50 км 10/0
[Cs]
+3.9 -7.4 43 +1 +4 1019.0 992.6
15 16.04 С 2-2
{6}
50 км 6/0
[Ci fib]
+3.6 -9.9 37 +2 +2 1017.6 991.4 +5.8
18 16.04 С 2-3
{4}
50 км ясно +1.2 -10.6 41 -1 -1 1018.5 992.1
21 16.04 С 2-2
{3}
50 км 3/0
[Ci fib]
-0.8 -10.4 48 -4 -4 1019.1 992.4
00 17.04 С 2-3
{3}
50 км 10/0
[Cs]
-1.8 -9.7 55 -5 -5 1019.8 992.8
03 17.04 штиль 0
{3}
50 км 10/0
[Cs]
-1.0 -9.3 53 -2 -0 1020.0 993.1 -2.2 30
06 17.04 С 1-1
{2}
50 км 10/0
[Cs]
+3.0 -8.5 43 +2 +9 1020.5 994.0
09 17.04 СЗ 1-2
{2}
50 км 8/3 1000 м
[Cu hum Cc]
+4.6 -8.6 38 +4 +11 1020.3 994.0
12 17.04 В 1-2
{3}
50 км 4/3 1000 м
[Cu hum Ci fib]
+8.0 -6.7 35 +8 +12 1019.6 993.6
15 17.04 штиль 0
{3}
50 км 3/3 1000 м
[Cu hum Ci]
+7.0 -10.3 28 +7 +7 1019.3 993.2 +8.5
18 17.04 СВ 1-2
{5}
50 км 1/0
[Ci]
+1.3 -7.0 54 0 0 1021.1 994.5
21 17.04 ЮВ 1-2
{3}
50 км ясно -0.9 -6.7 65 -3 -3 1022.1 995.2
00 18.04 В 1-1
{2}
50 км ясно -2.3 -6.6 72 -4 -4 1022.4 995.4
03 18.04 ЮВ 1-2
{2}
50 км ясно -2.3 -6.6 72 -4 -3 1022.5 995.5 -3.4 29
06 18.04 ЮВ 1-2
{2}
50 км ясно +5.6 -6.4 42 +5 +14 опасность
простуды
1021.6 995.4
09 18.04 ЮЗ 1-2
{3}
50 км ясно +6.7 -8.1 34 +7 +18 опасность
простуды
1021.1 995.0
12 18.04 Ю 1-3
{4}
50 км ясно +9.0 -8.6 28 +9 +16 1019.3 993.4
15 18.04 Ю 1-3
{3}
50 км 1/0
[Ci fib]
+8.4 -8.2 30 +9 +9 1017.2 991.4 +10.0
18 18.04 Ю 2-3
{4}
50 км 3/0
[Ci fib]
+4.8 -8.2 38 +3 +3 1016.4 990.3
21 18.04 Ю 2-3
{4}
50 км 1/0
[Ci fib]
+3.3 -7.5 45 +1 +1 1015.0 988.8
00 19.04 Ю 2-3
{4}
50 км ясно +1.9 -7.0 52 -1 -1 1013.6 987.3
03 19.04 Ю 1-1
{3}
50 км ясно +0.1 -6.2 63 -1 0 1011.8 985.4 -1.0 26
06 19.04 штиль 0
{3}
50 км ясно +7.8 -6.0 37 +8 +18 опасность
простуды
1010.7 985.0
09 19.04 СЗ 1-1
{3}
50 км ясно +10.4 -8.6 25 +11 +23 опасность
простуды
1008.6 983.2
12 19.04 ЮЗ 1-3
{3}
50 км ясно +12.8 -9.4 20 +13 +20 1006.6 981.5
15 19.04 Ю 1-2
{3}
50 км ясно +12.4 -7.4 24 +13 +14 1004.9 979.8 +13.2
18 19.04 С 6-9
{10}
50 км ясно +5.8 -3.6 51 +2 +2 1006.6 980.8
21 19.04 СЗ 3-5
{9}
50 км ясно +2.0 -4.8 61 -2 -2 1007.1 980.9
00 20.04 С 4-6
{7}
50 км 8/0
[Ac trans]
0.0 -4.1 74 -5 -5 1007.4 981.1
03 20.04 С 4-6
{11}
50 км 3/0
[Ac lent]
-2.0 -8.7 60 -7 -7 1009.2 982.5 -2.1 17
06 20.04 С 5-8
{11}
50 км 8/0
[Ac trans]
-0.6 -10.1 49 -6 -4 1009.9 983.4
09 20.04 С 6-10
{11}
50 км {ливн. осадки} 9/6 300 м
[Cb calv Ac trans]
-1.3 -7.2 64 -8 -7 1010.9 984.3
12 20.04 С 6-9
{11}
50 км {ливн. осадки} 10/0
[Ac und]
-1.5 -10.6 50 -8 -7 1012.2 985.6
15 20.04 СЗ 5-7
{10}
50 км 8/6 300 м
[Sc Ac trans]
-2.1 -13.3 42 -8 -8 1012.5 985.8 +0.1 0.0
18 20.04 СЗ 4-5
{7}
50 км 10/0
[Ac und]
-2.9 -12.6 47 -8 -8 1012.5 985.7
21 20.04 С 3-4
{6}
50 км 10/0
[Ac und]
-3.6 -13.2 47 -8 -8 1012.3 985.5
00 21.04 С 1-1
{4}
50 км 10/0
[Ac und]
-4.1 -13.0 50 -6 -6 1012.0 985.1
03 21.04 штиль 0
{1}
50 км 9/0
[Ac trans]
-3.6 -13.2 47 -4 -3 1010.9 984.1 -4.1 17
06 21.04 Ю 2-3
{4}
50 км 8/0
[Ac trans]
-1.4 -12.6 42 -4 -0 1010.1 983.5
09 21.04 ЮВ 1-3
{5}
50 км 10/0
[Ac trans Cs]
+0.5 -13.7 34 -0 +8 1008.2 981.9
12 21.04 ЮВ 3-6
{6}
50 км 10/0
[Cs]
+1.9 -14.1 29 -1 +3 1005.7 979.5
15 21.04 Ю 3-5
{6}
50 км 10/0
[Ac und]
+0.6 -12.8 36 -3 -3 1002.2 976.1 +2.6
18 21.04 ЮВ 3-5
{6}
50 км 10/0
[Ac und]
-0.5 -9.4 51 -5 -5 1000.5 974.3
21 21.04 В 2-5
{7}
10 км слабый ливневой снег 10/10 420 м
[Cb calv]
-2.9 -4.2 91 -7 -7 997.1 970.7
00 22.04 В 2-7
{8}
10 км слабый ливневой снег 10/10 400 м
[Cb calv]
-3.1 -3.8 95 -7 -7 993.2 967.0
03 22.04 В 3-8
{11}
4200 м слабый снег {ливн. осадки} 10/10 270 м
[Frnb Ns]
-3.8 -5.0 91 -9 -9 990.9 964.7 -3.8 5 16
06 22.04 СВ 4-11
{13}
1000 м сильный снег {ливн. осадки} 10/10 300 м
[Frnb Ns]
-3.1 -4.5 90 -9 -9 990.6 964.4 -3.9
09 22.04 СВ 5-12
{15}
2000 м снег {метель} 10/10 330 м
[Frnb Ns]
-2.8 -4.4 89 -10 -10 990.9 964.8

 

Местоположение метеостанции Нагорск (Кировская область, Россия): широта 59.32 долгота 50.83 высота над уровнем моря 213 м.

В архиве по умолчанию представлена погода в Нагорске за последнюю неделю. Архивные данные за месяц целиком и за предыдущие месяцы, начиная с января 2011 года, Вы можете получить, выбрав интересующий диапазон дат из раскрывающегося списка и нажав кнопку "Ввод!".


*Определитесь, кто Вы:
робот инопланетянин человек

Внимание! Время в таблицах - всемирное. Для получения местного времени необходимо прибавить поправку, которая в Нагорске равна 3 ч.

Смотрите также архив погоды в соседних городах и на ближайших метеорологических станциях:

Погода в Белой Холунице (Кировская область, Россия) (55 км)
Погода в Кирсе (Кировская область, Россия) (81 км)
Погода в Кирове (Кировская область, Россия) (106 км)
Погода в Фаленках (Кировская область, Россия) (116 км)
Погода в Койгородке (Коми, Россия) (126 км)
Погода в Объячеве (Коми, Россия) (134 км)
Погода в Кумене (Кировская область, Россия) (146 км)
Погода в Опарино (Кировская область, Россия) (155 км)
Погода в Усть-Черной (Пермский край, Россия) (163 км)
Погода в Глазове (Удмуртия, Россия) (167 км)

Пояснения к столбцам:

Ветер - указаны скорость ветра в м/с - средняя за 10 мин, порывы в срок и между сроками (в фигурных скобках) и направление, откуда дует ветер: С - северный, СВ - северо-восточный, В - восточный, ЮВ - юго-восточный, Ю - южный, ЮЗ - юго-западный, З - западный, СЗ - северо-западный.
Видимость - горизонтальная дальность видимости в метрах или километрах. При видимости от 1 до 10 км при отсутствии осадков обычно наблюдается дымка, при ухудшении видимости до 1 км и менее - туман. В сухую погоду видимость может ухудшаться дымом, пылью или мглою.
Явления - указаны атмосферные явления, наблюдавшиеся в срок или в последний час перед сроком; фигурными скобками обозначены явления, наблюдавшиеся между сроками (за 1-3 часа до срока); квадратными скобками обозначены град или гололедные отложения с указанием их диаметра в мм.
Облачность - указаны через наклонную черту общая и нижняя облачность в баллах и высота нижней границы облаков в метрах; квадратными скобками обозначены формы облаков: Ci - перистые, Cs - перисто-слоистые, Cc - перисто-кучевые, Ac - высококучевые, As - высокослоистые, Sc - слоисто-кучевые, Ns - слоисто-дождевые, Cu - кучевые, Cb - кучево-дождевые. Подробнее классификацию облаков см. в Атласе облаков (PDF).
T - Температура воздуха - температура, измеренная на высоте 2 м над землей.
Td - Температура точки росы - температура, при понижении до которой содержащийся в воздухе водяной пар достигнет насыщения.
f - Относительная влажность воздуха - влажноcть воздуха, измеренная на высоте 2 м над землей.
Te - Эффективная температура - температура, которую ощущает одетый по сезону человек в тени. Характеристика душности погоды. При расчете учитывается влияние влажности воздуха и скорости ветра на теплоощущения человека.
Tes - Эффективная температура на солнце - температура, которую ощущает человек, с поправкой на солнечный нагрев. Характеристика знойности погоды. Зависит от высоты солнца над горизонтом, облачности и скорости ветра. Ночью, в пасмурную погоду, а также при ветре 12 м/с и более поправка равна нулю.
P - Атмосферное давление - приведенное к уровню моря атмосферное давление.
Po - Атмосферное давление - измеренное на уровне метеостанции атмосферное давление.
Tmin - Минимальная температура - минимум температуры воздуха на высоте 2 м над землей.
Tmax - Максимальная температура - максимум температуры воздуха на высоте 2 м над землей.
R - Количество осадков - Количество выпавших осадков за период времени, мм. При наведении курсора мыши на число - период времени, за который выпало указанное количество осадков.
R24 - Количество осадков - Количество выпавших осадков за 24 часа, мм.
S - Снежный покров - Высота снежного покрова, см. При наведении курсора мыши на число - состояние снежного покрова и степень покрытия местности в баллах.